Location: Poughquag
(41.6090°N, 73.6820°W)
Time: 12:44:01
(UTC-04:00)

Tiros 1 - Pass Details

Date: 02 June 2020
Orbit: 630 x 664 km, 48.4° (Epoch: 06 July)

Event Time Altitude Azimuth Distance (km) Brightness Sun altitude
Rises 14:29:32 0° 274° (W) 2,969 10.9 62.0°
Reaches altitude 10° 14:32:01 10° 282° (WNW) 2,053 10.2 61.7°
Maximum altitude 14:36:27 38° 351° (N) 986 8.5 61.0°
Drops below altitude 10° 14:40:50 10° 60° (ENE) 2,034 9.5 60.3°
Sets 14:43:17 0° 69° (ENE) 2,937 10.2 59.9°
